Huntsville, AL

11:09 PM CST on December 14, 2017 (GMT -0600)
Huntsville International

Weather History for KHSV - October, 2012

Change the Weather History Date:

Monday, October 8, 2012

  Actual Average Record
Temperature  
Mean Temperature 52 °F 65 °F  
Max Temperature 61 °F 77 °F 96 °F (1911)
Min Temperature 42 °F 54 °F 34 °F (2000)
Degree Days  
Heating Degree Days 13 3  
Month to date heating degree days 35 18  
Since 1 July heating degree days 46 31  
Cooling Degree Days 0 3  
Month to date cooling degree days 15 30  
Year to date cooling degree days 2070 1900  
Growing Degree Days 3 (Base 50)    
Moisture  
Dew Point 44 °F    
Average Humidity 74    
Maximum Humidity 93    
Minimum Humidity 55    
Precipitation  
Precipitation 0.17 in 0.11 in 4.55 in (1952)
Month to date precipitation 1.07 0.89  
Year to date precipitation 40.62 40.93  
Snow  
Snow 0.00 in - - ()
Month to date snowfall 0.0  
Since 1 July snowfall 0.0  
Since 1 September snowfall 0.0  
Snow Depth 0.00 in    
Sea Level Pressure  
Sea Level Pressure 30.17 in    
Wind  
Wind Speed 4 mph (NNE)    
Max Wind Speed 13 mph    
Max Gust Speed 15 mph    
Visibility 10 miles    
Events Rain    
T = Trace of Precipitation, MM = Missing Value Source: NWS Daily Summary

Daily Weather History Graph

Daily Weather History Graph

Search for Another Location

Airport or City:

Trip Planner

Search our weather history database for the weather conditions in past years. The results will help you decide how hot, cold, wet, or windy it might be!

Date:

Astronomy

Oct. 08, 2012 Rise Set
Actual Time 6:47 AM CDT 6:20 PM CDT
Civil Twilight 6:22 AM CDT 6:46 PM CDT
Nautical Twilight 5:53 AM CDT 7:15 PM CDT
Astronomical Twilight 5:23 AM CDT 7:44 PM CDT
Moon No Moon Rise 1:55 PM CDT (10/8)
Length of Visible Light 12h 23m
Length of Day
11h 33m
Last Quarter, 46% of the Moon is Illuminated
Oct 8
Last Quarter
Oct 15
New
Oct 21
First Quarter
Oct 29
Full
Nov 6
Last Quarter

Hourly Weather History & Observations

Time (CDT) Temp. Dew Point Humidity Pressure Visibility Wind Dir Wind Speed Gust Speed Precip Events Conditions
12:53 AM 50.0 °F 42.1 °F 74% 30.14 in 10.0 mi North 3.5 mph - N/A   Overcast
1:53 AM 50.0 °F 42.1 °F 74% 30.13 in 10.0 mi North 5.8 mph - 0.01 in Rain Light Rain
2:53 AM 48.9 °F 43.0 °F 80% 30.13 in 10.0 mi NNE 9.2 mph - 0.00 in Rain Light Rain
3:53 AM 48.9 °F 43.0 °F 80% 30.12 in 10.0 mi NNE 10.4 mph - 0.00 in   Overcast
4:53 AM 48.9 °F 43.0 °F 80% 30.15 in 10.0 mi North 8.1 mph - 0.00 in Rain Light Rain
5:53 AM 48.0 °F 43.0 °F 83% 30.19 in 10.0 mi North 5.8 mph - 0.00 in   Overcast
6:53 AM 48.0 °F 44.1 °F 86% 30.19 in 5.0 mi NNE 4.6 mph - 0.05 in Rain Light Rain
7:53 AM 48.0 °F 45.0 °F 89% 30.21 in 9.0 mi NW 4.6 mph - 0.10 in Rain Light Rain
8:07 AM 48.2 °F 46.4 °F 93% 30.22 in 6.0 mi NNW 5.8 mph - 0.01 in Rain Light Rain
8:14 AM 48.2 °F 46.4 °F 93% 30.22 in 6.0 mi North 4.6 mph - 0.01 in Rain Light Rain
8:53 AM 48.9 °F 46.0 °F 90% 30.22 in 10.0 mi NE 5.8 mph - 0.01 in Rain Light Rain
9:07 AM 48.2 °F 44.6 °F 87% 30.22 in 10.0 mi East 5.8 mph - 0.00 in   Overcast
9:53 AM 50.0 °F 46.0 °F 86% 30.20 in 10.0 mi ENE 4.6 mph - 0.00 in   Overcast
10:25 AM 51.8 °F 44.6 °F 76% 30.21 in 10.0 mi NE 3.5 mph - N/A   Overcast
10:53 AM 53.1 °F 46.0 °F 77% 30.21 in 10.0 mi ENE 3.5 mph - N/A   Overcast
11:00 AM 53.6 °F 44.6 °F 72% 30.21 in 10.0 mi ENE 3.5 mph - N/A   Overcast
11:16 AM 55.4 °F 44.6 °F 67% 30.21 in 10.0 mi NE 4.6 mph - N/A   Mostly Cloudy
11:53 AM 57.9 °F 46.0 °F 65% 30.20 in 10.0 mi Variable 3.5 mph - N/A   Mostly Cloudy
12:53 PM 55.9 °F 44.1 °F 64% 30.19 in 10.0 mi Variable 3.5 mph - N/A   Overcast
1:10 PM 57.2 °F 44.6 °F 63% 30.19 in 10.0 mi WNW 5.8 mph - N/A   Overcast
1:53 PM 57.0 °F 44.1 °F 62% 30.17 in 10.0 mi North 4.6 mph - N/A   Overcast
2:53 PM 57.9 °F 44.1 °F 60% 30.15 in 10.0 mi NW 3.5 mph - N/A   Mostly Cloudy
3:53 PM 57.9 °F 43.0 °F 58% 30.14 in 10.0 mi Variable 3.5 mph - N/A   Mostly Cloudy
4:53 PM 60.1 °F 44.1 °F 55% 30.13 in 10.0 mi NE 8.1 mph - N/A   Mostly Cloudy
5:53 PM 55.9 °F 43.0 °F 62% 30.14 in 10.0 mi NE 4.6 mph - N/A   Mostly Cloudy
6:53 PM 53.1 °F 44.1 °F 71% 30.14 in 10.0 mi NNE 4.6 mph - N/A   Scattered Clouds
7:53 PM 50.0 °F 43.0 °F 77% 30.14 in 10.0 mi ENE 5.8 mph - N/A   Partly Cloudy
8:53 PM 48.0 °F 43.0 °F 83% 30.16 in 10.0 mi Calm Calm - N/A   Clear
9:53 PM 46.0 °F 42.1 °F 86% 30.17 in 10.0 mi Calm Calm - N/A   Clear
10:53 PM 45.0 °F 42.1 °F 90% 30.17 in 10.0 mi Calm Calm - N/A   Partly Cloudy
11:53 PM 44.1 °F 41.0 °F 89% 30.16 in 10.0 mi Calm Calm - N/A   Partly Cloudy